Location: Cedogno
(44.5333°N, 10.3500°E)
Time: 19:54:00
(UTC+00:00)

Daily predictions for brighter satellites

Satellite Brightness Start Highest point End
(mag) Time Altitude Azimuth Time Altitude Azimuth Time Altitude Azimuth
CZ-4C R/B 4.4 18:51:27 10° NNW 18:56:49 24° NNE 19:02:54 10° E
OE (NEXTSAT) 4.4 18:57:57 10° W 19:01:25 82° NNW 19:04:53 10° ENE
Sich 1 4.4 18:58:35 10° NNE 19:01:59 22° ENE 19:05:24 10° ESE
MOS 1 4.4 19:02:26 10° SSE 19:07:59 63° ENE 19:13:37 10° N
Lacrosse 5 rocket 4.2 19:09:37 10° W 19:11:08 12° WSW 19:12:40 10° SW
MOS 1-B Rocket 4.4 19:05:24 10° NNE 19:13:04 71° ESE 19:19:32 10° S
Meteor 2-15 Rocket 4.5 19:12:24 10° S 19:18:28 89° W 19:24:36 10° N
SJ-6B 3.1 19:15:18 10° S 19:19:07 69° WSW 19:23:04 10° NNW
SL-08 ROCKET BODY 4.3 19:19:46 10° N 19:25:42 77° E 19:31:32 10° SSE
USA 290 3.6 19:25:19 10° N 19:28:05 25° ENE 19:30:10 14° ESE
Ariane Rocket 3.0 19:23:45 10° SSE 19:28:48 88° ENE 19:33:54 10° NNW
Cosmos 2263 Rocket 4.4 19:27:11 10° WSW 19:32:01 30° NW 19:36:55 10° N
FALCON 9 DEB 3.2 19:30:29 10° WNW 19:33:29 54° SW 19:35:41 16° SE
IRIS 4.3 19:31:22 10° WSW 19:33:38 39° S 19:35:32 17° ESE
Cosmos 1606 2.7 19:30:45 10° S 19:34:30 81° W 19:38:19 10° N
CZ-2C R/B 4.5 19:31:31 10° NNE 19:35:31 31° E 19:39:19 11° SSE
Cosmos 1844 Rocket 2.6 19:31:02 10° SSW 19:36:34 74° ESE 19:42:09 10° NNE
SPOT 1/Viking Rocket 4.3 19:36:09 14° SE 19:40:09 37° ENE 19:44:54 10° N
SL-4 R/B 2.4 19:37:45 10° WNW 19:42:06 64° SW 19:45:35 17° SE
Cosmos 1805 Rocket 3.5 19:39:06 10° N 19:43:28 77° E 19:47:34 11° SSE
Cosmos 1354 Rocket 4.4 19:40:25 10° S 19:45:15 40° ESE 19:50:09 10° NE
Cosmos 1386 Rocket 4.4 19:39:14 10° N 19:45:16 73° E 19:51:19 10° SSE
X-37B 0.6 19:42:10 10° W 19:45:22 80° N 19:47:53 15° E
ARIANE 5 R/B 3.9 19:43:07 15° ESE 19:45:36 25° ENE 19:49:08 10° NNE
Cosmos 1633 Rocket 3.8 19:47:50 10° N 19:51:54 35° ENE 19:54:17 20° SE
Cosmos 1745 Rocket 4.0 19:46:16 10° N 19:52:30 85° E 19:58:39 10° S
SPOT 3 Rocket 3.5 19:49:00 13° SSE 19:53:35 78° ENE 19:58:45 10° NNW
Cosmos 1437 4.5 19:54:17 15° ENE 19:54:17 15° ENE 19:55:32 10° NE
Cosmos 1709 Rocket 4.2 19:49:20 10° N 19:55:19 52° ENE 19:59:47 18° SSE
Resurs 1-3 4.3 19:51:35 10° S 19:55:51 53° W 20:00:10 10° NNW
Landsat 7 3.8 19:52:36 16° SSE 19:56:22 71° ENE 20:01:08 10° N
Cosmos 1844 3.7 19:51:02 10° SSW 19:56:47 87° ESE 20:02:30 10° NNE
Cosmos 1812 4.4 19:56:30 16° E 19:56:52 16° E 19:59:19 10° NE
Cosmos 968 Rocket 4.0 19:52:22 10° SSW 19:57:35 64° WNW 20:02:48 10° NNE
BREEZE-M DEB (TANK) 4.0 19:55:03 10° WNW 19:59:21 82° SSW 20:06:54 14° ESE
ATLAS 5 CENTAUR R/B 2.5 19:55:40 10° NNW 20:01:12 63° NE 20:05:41 20° SE
NOSS 3-3 (A) 4.2 19:56:23 10° S 20:01:38 41° ESE 20:07:31 10° NE
NOSS 3-3 (C) 4.2 19:56:29 10° S 20:01:45 41° ESE 20:07:37 10° NE
Cosmos 1328 Rocket 4.2 19:59:49 22° SE 20:02:03 36° E 20:06:07 10° NNE
Cosmos 1486 Rocket 4.4 19:59:48 10° SSW 20:05:05 68° WNW 20:10:26 10° NNE
IGS 5A 3.5 20:04:31 17° S 20:07:38 77° WSW 20:11:49 10° NNW
Meteor 1-26 Rocket 4.3 20:02:16 11° S 20:07:44 60° E 20:13:12 10° NNE
CARTOSAT-1 4.3 20:07:02 24° ESE 20:08:58 38° ENE 20:12:58 10° N
Cosmos 2315 Rocket 4.1 20:04:39 13° S 20:10:22 60° E 20:16:39 10° NNE
Cosmos 1833 Rocket 3.8 20:05:49 10° N 20:10:49 31° NE 20:14:00 18° ESE
CRYOSAT 2 4.4 20:07:53 21° SSE 20:11:03 62° E 20:15:54 10° N
S3M 4.2 20:04:45 10° SSW 20:11:08 75° W 20:17:31 10° N
BREEZE-M R/B 2.2 20:10:37 10° WSW 20:13:10 60° NNW 20:15:12 14° ENE
Cosmos 1666 4.3 20:14:12 10° NNE 20:16:54 19° ENE 20:17:20 18° E
Cosmos 1666 Rocket 3.5 20:13:09 10° N 20:17:34 81° E 20:19:57 27° SSE
Meteor 2-17 Rocket 4.4 20:14:28 10° N 20:20:41 86° E 20:25:05 20° S
Cosmos 1933 3.9 20:17:37 10° SSW 20:21:36 59° W 20:25:37 10° N
USA 245 2.2 20:23:48 60° NNE 20:23:48 60° NNE 20:25:46 10° N
Cosmos 783 Rocket 4.5 20:21:39 10° NNW 20:26:55 75° ENE 20:29:28 31° SSE
Cosmos 1242 Rocket 3.1 20:24:03 13° SSW 20:27:12 56° WNW 20:30:43 10° N
BREEZE M DEB (TANK) 3.0 20:28:55 10° WNW 20:33:08 38° N 20:34:07 25° NE
Resurs 01 Rocket 2.9 20:29:42 13° SSW 20:33:17 37° W 20:37:25 10° NNW
Cosmos 773 Rocket 4.0 20:29:25 10° NNW 20:34:45 69° ENE 20:37:01 34° SE
Spot 2 Rocket 3.4 20:34:12 31° SSE 20:36:43 87° ENE 20:41:48 10° NNW
SJ 16-02 2.5 20:38:19 27° E 20:38:19 27° E 20:41:40 10° NE
OE (NEXTSAT) 4.5 20:35:35 10° WNW 20:39:03 71° N 20:39:58 45° ENE
Sich 1 4.5 20:35:49 10° NNW 20:39:43 34° W 20:43:01 14° SSW
Cosmos 2228 Rocket 4.5 20:40:06 22° E 20:40:06 22° E 20:43:23 10° NE
DELTA 2 R/B (1) 4.2 20:35:24 10° W 20:40:30 38° SSW 20:41:51 33° SSE
COSMOS 2406 3.6 20:35:51 10° NNW 20:41:23 50° ENE 20:43:43 32° ESE
Meteor 2-6 Rocket 4.3 20:41:14 35° SSE 20:43:11 52° E 20:48:30 10° NNE
Cosmos 2082 Rocket 3.4 20:39:08 10° N 20:44:02 29° NE 20:46:29 22° E
USA 306 4.4 20:40:32 10° NW 20:44:22 31° NNE 20:47:01 17° ENE
Cosmos 1782 3.3 20:43:16 22° SSW 20:45:42 58° W 20:49:38 10° N
Cosmos 1500 3.0 20:42:46 10° N 20:46:33 85° E 20:47:10 60° SSE
CZ-4C R/B 3.1 20:39:30 10° NNW 20:46:41 66° NE 20:51:18 28° ESE
ERS-1 Rocket 2.9 20:50:52 41° SSE 20:52:39 81° ENE 20:57:41 10° NNW
SPOT 5 2.9 20:52:52 42° SSE 20:54:37 82° ENE 20:59:52 10° NNW
H-2A R/B 3.6 20:53:39 10° NNE 20:57:45 51° E 20:57:49 51° ESE
Cosmos 1271 Rocket 3.3 21:00:22 43° ENE 21:00:22 43° ENE 21:03:49 10° NNE
Meteor 1-11 Rocket 4.3 20:55:14 10° N 21:01:00 47° ENE 21:02:44 37° ESE
Cosmos 1151 Rocket 4.2 20:58:02 16° SW 21:01:11 41° WNW 21:05:22 10° N
Cosmos 1777 Rocket 3.9 20:58:39 28° SSW 21:01:27 88° ESE 21:06:41 10° NNE
Terra 1.8 21:02:23 51° SE 21:03:27 71° ENE 21:08:13 10° N
Cosmos 2278 Rocket 2.1 21:05:44 37° S 21:08:02 71° ESE 21:13:41 10° NNE
USA 307 4.1 21:05:50 10° NW 21:09:50 38° NNE 21:11:26 27° ENE
Cosmos 1515 Rocket 3.9 21:17:35 42° SW 21:18:51 61° W 21:23:13 10° N
Cosmos 2084 4.0 21:17:53 15° SW 21:21:14 56° NW 21:25:26 10° NNE
ARIANE 5 R/B 3.9 21:20:39 28° SW 21:21:55 33° W 21:25:51 10° NNW
X-37B 2.7 21:18:51 10° W 21:20:09 22° W 21:20:09 22° W
USA 308 3.8 21:19:16 10° NW 21:23:24 43° NNE 21:24:24 36° ENE
Cosmos 1869 Rocket 3.8 21:19:46 10° N 21:23:54 52° ENE 21:23:54 52° ENE
Cosmos 1536 3.6 21:20:20 10° N 21:23:48 42° ENE 21:23:48 42° ENE
Meteor 1-10 Rocket 4.1 21:22:59 47° S 21:24:43 90° WNW 21:30:23 10° N
Cosmos 1943 Rocket 3.9 21:30:25 18° E 21:30:25 18° E 21:33:00 10° NE
Cosmos 2154 Rocket 4.0 21:25:04 10° N 21:31:26 73° E 21:33:02 52° SSE
Cosmos 1812 4.0 21:31:31 32° WSW 21:32:19 36° WNW 21:35:55 10° N
ALOS 2 4.5 21:38:42 19° ENE 21:38:51 19° ENE 21:41:59 10° NNE
Cosmos 2184 Rocket 4.1 21:33:12 10° NNW 21:39:24 69° W 21:41:19 45° SSW
Cosmos 990 Rocket 4.5 21:40:01 45° E 21:40:01 45° E 21:44:32 10° NNE
NOSS 3-4 (A) 3.9 21:37:21 10° NW 21:44:23 78° NE 21:47:02 45° SE
NOSS 3-4 (C) 3.9 21:37:27 10° NW 21:44:29 77° NE 21:47:09 44° SE
ATLAS 5 CENTAUR R/B 3.7 21:40:46 10° WNW 21:45:43 28° WSW 21:47:13 26° SW
Cosmos 2074 Rocket 4.4 21:41:10 10° NNW 21:47:20 58° W 21:49:23 40° SSW
Cosmos 1666 4.2 21:49:13 10° NNW 21:52:11 29° W 21:52:11 29° W
Cosmos 2112 Rocket 4.4 21:48:02 10° NNW 21:53:17 52° ENE 21:53:50 50° E
Nadezhda 1 Rocket 4.0 21:51:52 49° SSW 21:53:43 79° W 22:00:01 10° N
Cosmos 1833 Rocket 3.2 21:49:32 10° NW 21:54:54 45° WSW 21:55:42 42° SW
Cosmos 1238 Rocket 4.2 21:51:02 10° N 21:57:09 48° ENE 21:57:51 45° E
Cosmos 1743 3.8 21:54:08 10° N 21:56:52 40° NNE 21:56:52 40° NNE
ATLAS 2AS CENTAUR R/B 3.1 21:50:42 10° NNW 21:58:01 60° NE 22:00:32 39° ESE
USA 215 4.1 21:55:02 14° E 22:00:21 45° NNE 22:06:30 10° NW
Cosmos 2297 4.0 22:03:58 49° E 22:03:58 49° E 22:08:58 10° NE
USA 305 3.5 22:01:16 10° NW 22:04:41 56° NW 22:04:41 56° NW
Cosmos 2181 Rocket 4.2 22:07:22 50° ESE 22:07:48 51° E 22:13:43 10° NNE
Cosmos 158 Rocket 4.4 22:11:03 10° NNW 22:15:27 46° W 22:15:27 46° W
SJ 16-02 2.9 22:15:15 27° W 22:16:24 31° WNW 22:20:21 10° N
Cosmos 1733 Rocket 3.7 22:12:34 10° N 22:16:02 51° NNE 22:16:02 51° NNE
Cosmos 2228 Rocket 4.3 22:17:34 33° W 22:17:56 34° WNW 22:22:00 10° N
Meteor 1-27 Rocket 4.3 22:18:37 42° WSW 22:20:07 52° WNW 22:25:54 10° N
Cosmos 1680 Rocket 3.4 22:16:09 10° NNW 22:21:27 80° W 22:21:27 80° W
Cosmos 2341 Rocket 3.9 22:15:48 10° N 22:22:14 89° W 22:23:08 68° S
Cosmos 1937 Rocket 3.7 22:24:06 58° ENE 22:24:06 58° ENE 22:28:32 10° NNE
Cosmos 2366 rocket 4.1 22:17:19 10° N 22:23:26 60° E 22:24:07 57° ESE
USA 306 4.1 22:20:23 10° WNW 22:23:05 38° WNW 22:23:05 38° WNW
Cosmos 1818 4.3 22:21:23 10° NNW 22:26:41 46° NE 22:27:40 41° ENE
Cosmos 967 Rocket 4.3 22:27:43 68° SE 22:27:49 68° ESE 22:34:03 10° NE
Cosmos 2082 Rocket 2.6 22:22:56 10° NW 22:28:19 47° WSW 22:28:19 47° WSW
CZ-4C R/B 3.8 22:28:26 10° NW 22:35:09 35° WSW 22:36:28 34° SW
Meteor 1-19 Rocket 4.0 22:40:49 81° ENE 22:40:49 81° ENE 22:46:03 10° NNE
Cosmos 2218 Rocket 3.8 22:35:10 10° N 22:41:28 85° E 22:42:06 74° SSE
Terra 4.1 22:41:15 13° W 22:41:42 13° W 22:44:03 10° WNW
Cosmos 489 Rocket 4.4 22:42:27 10° NNW 22:48:43 76° ENE 22:49:22 69° ESE
Cosmos 2278 Rocket 4.3 22:48:24 10° W 22:52:42 22° NW 22:57:00 10° N
Cosmos 1862 Rocket 4.4 22:57:00 46° NNW 22:57:00 46° NNW 23:00:20 10° N
Cosmos 1898 Rocket 4.2 22:57:39 45° W 22:58:14 47° WNW 23:03:24 10° N
Nadezhda 3 Rocket 4.4 23:02:11 49° ESE 23:02:35 50° E 23:08:34 10° NNE
Cosmos 2369 Rocket 2.4 23:03:27 57° E 23:03:27 57° E 23:08:25 10° NNE
COBE Rocket 4.1 23:07:04 70° NW 23:07:04 70° NW 23:11:41 10° NNW
RESURS DK-1 4.1 23:06:24 10° N 23:09:53 27° NE 23:09:53 27° NE
Meteor 2-9 Rocket 4.5 23:04:57 10° NNW 23:10:35 57° W 23:10:35 57° W
SL-8 Rocket 4.4 23:04:56 10° NNW 23:11:00 50° W 23:11:34 48° WSW
Cosmos 1943 Rocket 2.3 23:11:54 63° W 23:12:16 64° WNW 23:17:53 10° NNE
Cosmos 1975 4.4 23:09:49 10° NNW 23:12:12 33° NNW 23:12:12 33° NNW
ALOS 2 3.8 23:16:05 36° NW 23:16:05 36° NW 23:19:05 10° NNW
Cosmos 1867 4.4 23:18:57 40° E 23:18:57 40° E 23:23:03 10° NE
SL-08 R/B 4.3 23:12:57 10° N 23:19:11 88° W 23:19:37 79° S
Cosmos 1607 4.3 23:19:25 51° ESE 23:19:25 51° ESE 23:25:28 10° NE
DNEPR-1 R/B 4.4 23:19:56 59° W 23:20:26 62° NW 23:25:25 10° NNE
Meteor 2-4 Rocket 3.7 23:20:31 79° W 23:20:37 79° W 23:26:20 10° N
Cosmos 44 4.2 23:16:45 10° NW 23:20:48 43° WNW 23:20:48 43° WNW
Cosmos 2263 4.4 23:22:38 61° E 23:22:38 61° E 23:28:00 10° NNE
Okean 1-7 3.9 23:30:15 46° N 23:30:15 46° N 23:33:21 10° N
Cosmos 372 Rocket 4.3 23:30:36 58° NW 23:30:36 58° NW 23:35:28 10° NNE
ATLAS CENTAUR R/B 3.8 23:33:01 14° ENE 23:33:01 14° ENE 23:33:45 10° ENE
Cosmos 1125 Rocket 4.0 23:35:51 50° E 23:35:51 50° E 23:40:21 10° NNE
SeaSat 1 2.5 23:33:41 10° NNE 23:38:19 73° NNW 23:38:19 73° NNW
Cosmos 1656 Rocket 3.6 23:39:04 70° E 23:39:04 70° E 23:44:13 10° NNE
Cosmos 2242 Rocket 4.5 23:40:22 45° NW 23:40:22 45° NW 23:43:49 10° N
Cosmos 494 Rocket 4.2 23:34:57 10° NNW 23:40:07 60° ENE 23:40:13 60° ENE
USA 215 3.1 23:42:21 67° S 23:43:07 75° SW 23:49:41 10° NW
Cosmos 2239 Rocket 4.3 23:37:54 10° N 23:44:14 90° SSE 23:44:52 74° S
Cosmos 1833 4.2 23:41:15 10° NNW 23:47:01 75° ENE 23:47:33 69° ESE
ATLAS 2AS CENTAUR R/B 3.6 23:42:18 10° NW 23:47:56 32° WSW 23:47:56 32° WSW
CZ-2D R/B 3.8 23:49:04 10° NE 23:53:08 21° E 23:53:55 20° ESE
